[[{"header":{"parameterUnit":"m.s-1","parameterCategory":1,"la1":30.2991,"la2":30.254,"lo1":-89.0895,"lo2":-89.0444,"dy":0.0017,"dx":0.0017,"nx":28,"ny":28,"refTime":"2023-11-21T09:00:00:Z","depth":0,"parameterNumber":2,"parameterNumberName":"U-component_of_WINDS"},"data":[0,0,0,0,0,0,0,0,0,0,0,0,0,0,0,0,0,0,0,0,0,0,0,0,0,0,0,0,0,0,0,0,0,0,0,0,0,0,0,0,0,0,0,0,0,0,0,0,0,0,0,0,0,0,0,0,0,0,0.9752,0.9752,0,0.9737,0.9736,0.9736,0.9719,0.9719,0.9719,0.9718,0.9702,0.9702,0.9702,0,0,0,0,0,0,0,0,0,0,0,0,0,0.9768,0.9768,0.9752,0.9752,0.9752,0.9737,0.9736,0.9736,0.9719,0.9719,0.9719,0.9718,0.9702,0.9702,0.9702,0,0,0,0,0,0,0,0,0,0,0,0,0,0.9758,0.9768,0.9752,0.9742,0.974,0.9737,0.9736,0.9736,0.9719,0.9719,0.9718,0.9718,0.9702,0.9702,0.9702,0.9707,0,0,0.9701,0.97,0,0,0,0,0,0,0,0,0.9759,0.9757,0.9743,0.9742,0.9741,0.9729,0.9736,0.9726,0.9719,0.9727,0.9718,0.9718,0.9711,0.971,0.9708,0.9706,0.9705,0.9701,0.97,0.97,0.97,0,0,0,0,0,0,0,0.9759,0.9758,0.9746,0.9743,0.9742,0.9738,0.9736,0.9734,0.9722,0.9727,0.9725,0.9724,0.9711,0.9708,0.9708,0.9705,0.9701,0.97,0.97,0.97,0.9708,0.9709,0,0,0,0,0,0,0.9762,0.9759,0.9746,0.9745,0.9749,0.9738,0.9736,0.9733,0.9721,0.9719,0.9724,0.9723,0.9709,0.9708,0.9707,0.9713,0.97,0.97,0.97,0.9708,0.9709,0.9709,0,0,0,0,0,0,0.9762,0.9761,0.9747,0.9752,0.975,0.9738,0.9736,0.9733,0.9731,0.972,0.9717,0.9724,0.9709,0.9707,0.9707,0.9712,0.97,0.9699,0.9708,0.9708,0.9709,0.9725,0,0,0,0,0,0,0.9763,0.9761,0.9762,0.9752,0.975,0.9747,0.9736,0.9733,0.9731,0.9729,0.9719,0.9717,0.9708,0.9708,0.9707,0.9712,0.9699,0.9707,0.9708,0.9709,0.9724,0.9726,0.9728,0,0,0,0,0,0.9763,0.9767,0.9763,0.9761,0.9751,0.9748,0.9746,0.9737,0.9731,0.9733,0.9726,0.9717,0.9712,0.9708,0.9707,0.9712,0.9707,0.9708,0.9709,0.9723,0.9726,0.9728,0,0,0,0,0,0,0.9778,0.9766,0.976,0.9761,0.9756,0.9745,0.9747,0.974,0.9735,0.9734,0.9722,0.972,0.9722,0.9717,0.9712,0.9717,0.9708,0.9709,0.972,0.9722,0.9724,0.9725,0.9699,0,0,0,0,0,0.9782,0.978,0.9769,0.9771,0.9769,0.9758,0.9756,0.975,0.9743,0.9741,0.9734,0.9728,0.9725,0.9724,0.972,0.9724,0.9722,0.9727,0.9729,0.973,0.9731,0.9734,0.9736,0.9712,0.9712,0.9712,0,0,0.9789,0.9782,0.9781,0.9774,0.9769,0.9768,0.9756,0.9755,0.9754,0.9741,0.974,0.9735,0.9728,0.973,0.9731,0.9726,0.9737,0.9732,0.9733,0.9733,0.9735,0.9737,0.9739,0.9713,0.9713,0.9712,0,0,0.9801,0.9795,0.9796,0.9792,0.9785,0.9778,0.9779,0.977,0.9766,0.9765,0.9756,0.9755,0.975,0.9746,0.9743,0.9756,0.9748,0.9755,0.9765,0.9768,0.977,0.9772,0.9777,0.9779,0.9756,0.9756,0.9756,0,0.981,0.9807,0.9798,0.9798,0.9795,0.9784,0.9786,0.9782,0.9774,0.9773,0.9768,0.9763,0.9757,0.9759,0.9762,0.976,0.9761,0.9756,0.9771,0.9772,0.9773,0.9778,0.978,0.9757,0.9757,0.9757,0.9757,0,0.982,0.9818,0.9821,0.9814,0.9812,0.9813,0.9804,0.9803,0.9797,0.9791,0.9792,0.9785,0.9781,0.9781,0.9774,0.9782,0.9779,0.9773,0.9764,0.9777,0.9781,0.9783,0.9758,0.9758,0.9758,0.9757,0,0,0.9839,0.9829,0.983,0.9827,0.9819,0.9818,0.9819,0.9816,0.9815,0.9811,0.9812,0.9809,0.9803,0.98,0.9794,0.9796,0.9808,0.979,0.9789,0.9793,0.9817,0.9821,0.9824,0.9803,0.9804,0.9804,0.9817,0,0.985,0.985,0.9843,0.9846,0.9845,0.9835,0.9836,0.9832,0.9827,0.9826,0.9821,0.9819,0.9811,0.981,0.9812,0.9806,0.9812,0.9805,0.9804,0.9804,0.9806,0.9826,0.9831,0.9843,0.9819,0.9819,0.9819,0,0.9862,0.9859,0.9862,0.9856,0.9855,0.9856,0.9853,0.9852,0.9847,0.9844,0.9841,0.9834,0.9836,0.9828,0.983,0.9825,0.9824,0.9822,0.9822,0.9821,0.9812,0.9826,0.9847,0.9849,0.9822,0.9822,0.9821,0,0.9876,0.9873,0.9875,0.9873,0.9865,0.9866,0.9863,0.9859,0.9857,0.9855,0.9854,0.9852,0.985,0.9849,0.9842,0.9837,0.9845,0.9836,0.9842,0.9843,0.9844,0.9844,0.9866,0.9844,0.9844,0.9844,0.9844,0,0.9889,0.9891,0.9881,0.9882,0.9885,0.9877,0.988,0.9876,0.9872,0.9873,0.9864,0.9865,0.9856,0.9856,0.985,0.9853,0.9853,0.985,0.9848,0.9851,0.9851,0.985,0.9849,0.9844,0.9844,0.9844,0.9844,0,0.9905,0.9898,0.9899,0.9893,0.9891,0.9894,0.9888,0.9889,0.9885,0.9886,0.9885,0.9878,0.9878,0.9871,0.9869,0.9865,0.9871,0.9867,0.9872,0.9871,0.9878,0.9877,0.9899,0.9902,0.9879,0.9879,0.9879,0,0.9913,0.9914,0.9909,0.9908,0.9906,0.9906,0.9905,0.9898,0.9897,0.9893,0.9895,0.9894,0.9893,0.9893,0.9888,0.9887,0.9884,0.9892,0.9883,0.9886,0.9884,0.9884,0.9885,0.9893,0.9893,0.9894,0.9894,0,0.9928,0.9925,0.9924,0.9923,0.9922,0.9921,0.9918,0.9919,0.9911,0.9911,0.9911,0.991,0.9909,0.9909,0.9907,0.9904,0.9898,0.9897,0.9898,0.99,0.9903,0.9902,0.9877,0.9896,0.9896,0.9896,0.9896,0.9895,0.9941,0.9942,0.9939,0.9938,0.9936,0.9935,0.9936,0.9932,0.9932,0.993,0.9926,0.9927,0.9924,0.9921,0.9919,0.992,0.9916,0.9918,0.9919,0.9919,0.9921,0.9903,0.992,0.992,0.992,0.992,0.992,0,0.9956,0.9954,0.9953,0.9951,0.9951,0.9946,0.9944,0.9944,0.9945,0.9943,0.9943,0.9943,0.9943,0.9939,0.9939,0.994,0.9938,0.994,0.994,0.994,0.9924,0.9923,0.9943,0.9943,0.9943,0.9943,0.9943,0.9943,0.9964,0.9966,0.9964,0.9966,0.9963,0.9964,0.9964,0.9963,0.9961,0.9962,0.9962,0.996,0.9957,0.9957,0.9957,0.9956,0.9956,0.996,0.9958,0.9943,0.9941,0.9939,0.9938,0.996,0.996,0.9973,0.9974,0.9974]},{"header":{"parameterUnit":"m.s-1","parameterCategory":1,"la1":30.2991,"la2":30.254,"lo1":-89.0895,"lo2":-89.0444,"dy":0.0017,"dx":0.0017,"nx":28,"ny":28,"refTime":"2023-11-21T09:00:00:Z","depth":0,"parameterNumber":3,"parameterNumberName":"V-component_of_WINDS"},"data":[0,0,0,0,0,0,0,0,0,0,0,0,0,0,0,0,0,0,0,0,0,0,0,0,0,0,0,0,0,0,0,0,0,0,0,0,0,0,0,0,0,0,0,0,0,0,0,0,0,0,0,0,0,0,0,0,0,0,-6.003,-6.0031,0,-6.0116,-6.0117,-6.0118,-6.0091,-6.0089,-6.0087,-6.0086,-6.0169,-6.0173,-6.0177,0,0,0,0,0,0,0,0,0,0,0,0,0,-5.9838,-5.9842,-6.003,-6.0031,-6.0032,-6.0116,-6.0117,-6.0119,-6.0091,-6.0089,-6.0087,-6.0085,-6.0168,-6.0172,-6.0177,0,0,0,0,0,0,0,0,0,0,0,0,0,-5.9923,-5.9843,-6.003,-6.0029,-6.003,-6.0116,-6.0118,-6.0119,-6.0092,-6.0089,-6.0086,-6.0084,-6.0166,-6.0172,-6.0178,-6.0269,0,0,-6.0196,-6.0198,0,0,0,0,0,0,0,0,-5.9918,-5.993,-6.0028,-6.0029,-6.003,-6.009,-6.008,-6.0169,-6.0092,-6.0068,-6.0086,-6.0082,-6.0145,-6.0152,-6.0174,-6.0272,-6.0276,-6.0196,-6.02,-6.0202,-6.0204,0,0,0,0,0,0,0,-5.9912,-5.9926,-6.0064,-6.003,-6.0031,-6.0023,-6.0032,-6.0097,-6.012,-6.007,-6.0068,-6.0079,-6.0145,-6.0168,-6.0176,-6.0277,-6.0196,-6.0201,-6.0205,-6.0207,-6.0456,-6.0459,0,0,0,0,0,0,-5.9906,-5.9921,-6.0061,-6.0067,-5.9966,-6.0029,-6.0039,-6.0074,-6.012,-6.0124,-6.0081,-6.0077,-6.016,-6.0169,-6.0179,-6.0289,-6.0202,-6.0208,-6.0211,-6.0453,-6.0457,-6.046,0,0,0,0,0,0,-5.9902,-5.9919,-6.0058,-5.9994,-6.0011,-6.0035,-6.0074,-6.0077,-6.0101,-6.0128,-6.0132,-6.0102,-6.0158,-6.017,-6.0247,-6.0292,-6.021,-6.0216,-6.0449,-6.0454,-6.0458,-6.0511,0,0,0,0,0,0,-5.9897,-5.9918,-5.9953,-5.9995,-6.0014,-6.0126,-6.0077,-6.008,-6.0112,-6.0107,-6.0148,-6.0152,-6.0157,-6.0239,-6.0253,-6.0298,-6.022,-6.0445,-6.0451,-6.0457,-6.0505,-6.0516,-6.0526,0,0,0,0,0,-5.989,-5.9963,-5.9955,-5.9972,-6.006,-6.0129,-6.014,-6.0145,-6.0115,-6.0151,-6.0169,-6.0151,-6.0285,-6.0247,-6.0263,-6.031,-6.0442,-6.045,-6.0456,-6.05,-6.0514,-6.0526,0,0,0,0,0,0,-5.9924,-5.9968,-5.996,-6.0049,-6.0086,-6.0124,-6.0169,-6.0159,-6.0203,-6.0197,-6.02,-6.021,-6.0289,-6.0307,-6.0264,-6.0402,-6.0359,-6.0369,-6.0387,-6.04,-6.0411,-6.0405,-6.0225,0,0,0,0,0,-5.9942,-5.9996,-6.0031,-6.0106,-6.0126,-6.0144,-6.0175,-6.0176,-6.0213,-6.0228,-6.0251,-6.0287,-6.0337,-6.0369,-6.0417,-6.0508,-6.0516,-6.0548,-6.0559,-6.0568,-6.0577,-6.0627,-6.0642,-6.0483,-6.0483,-6.0482,0,0,-5.998,-6.0011,-6.0044,-6.0114,-6.0143,-6.0198,-6.0157,-6.0217,-6.0257,-6.0236,-6.0311,-6.0329,-6.0369,-6.0454,-6.0492,-6.0471,-6.0623,-6.0576,-6.0583,-6.0587,-6.0636,-6.0651,-6.0664,-6.0487,-6.0487,-6.0486,0,0,-6.0076,-6.0105,-6.0171,-6.0202,-6.0246,-6.0258,-6.0274,-6.0315,-6.0327,-6.0403,-6.0388,-6.0436,-6.0522,-6.0551,-6.0578,-6.0688,-6.0673,-6.0703,-6.0758,-6.0807,-6.082,-6.0831,-6.0871,-6.0885,-6.0712,-6.0712,-6.0712,0,-6.0116,-6.02,-6.0206,-6.0268,-6.0299,-6.0285,-6.0352,-6.038,-6.0437,-6.0459,-6.0435,-6.0544,-6.057,-6.0662,-6.0689,-6.071,-6.0729,-6.0698,-6.0818,-6.0829,-6.084,-6.0878,-6.0893,-6.0715,-6.0715,-6.0714,-6.0714,0,-6.0248,-6.0307,-6.0355,-6.0413,-6.045,-6.0513,-6.0528,-6.0565,-6.0563,-6.0577,-6.0655,-6.0685,-6.074,-6.0761,-6.0759,-6.0853,-6.0839,-6.0817,-6.0774,-6.0858,-6.0894,-6.0909,-6.072,-6.0719,-6.0718,-6.0717,0,0,-6.0367,-6.043,-6.0447,-6.0474,-6.0523,-6.0568,-6.0631,-6.0686,-6.0718,-6.0758,-6.0811,-6.0885,-6.0865,-6.0895,-6.0896,-6.0939,-6.1026,-6.0912,-6.0912,-6.0932,-6.1132,-6.1149,-6.1166,-6.1017,-6.1019,-6.1022,-6.1129,0,-6.0468,-6.0582,-6.059,-6.0692,-6.0746,-6.0734,-6.079,-6.0825,-6.0841,-6.0888,-6.0904,-6.0958,-6.0927,-6.0945,-6.0988,-6.1006,-6.1066,-6.0998,-6.1065,-6.1068,-6.1056,-6.1185,-6.1202,-6.1303,-6.1143,-6.1146,-6.1147,0,-6.0601,-6.0648,-6.0757,-6.08,-6.0823,-6.0873,-6.0925,-6.097,-6.101,-6.1019,-6.1053,-6.1049,-6.1113,-6.1069,-6.1157,-6.1111,-6.1139,-6.1153,-6.1156,-6.1163,-6.1113,-6.1195,-6.1334,-6.135,-6.1169,-6.1168,-6.1166,0,-6.0678,-6.0768,-6.0845,-6.0869,-6.092,-6.0956,-6.0979,-6.1017,-6.105,-6.1095,-6.1116,-6.1167,-6.1195,-6.1234,-6.1243,-6.121,-6.1332,-6.1288,-6.1341,-6.1341,-6.1367,-6.1365,-6.1513,-6.1384,-6.1384,-6.1384,-6.1383,0,-6.0791,-6.0857,-6.0881,-6.0928,-6.1003,-6.1011,-6.1084,-6.1105,-6.1139,-6.1189,-6.1181,-6.1228,-6.1237,-6.1286,-6.1294,-6.1366,-6.1379,-6.1387,-6.1388,-6.1388,-6.1387,-6.1406,-6.14,-6.1388,-6.1387,-6.1386,-6.1385,0,-6.0889,-6.0908,-6.0991,-6.1034,-6.1047,-6.11,-6.1136,-6.1182,-6.1197,-6.1261,-6.1276,-6.13,-6.1357,-6.1371,-6.1438,-6.1443,-6.153,-6.1524,-6.1517,-6.1516,-6.1569,-6.1564,-6.1734,-6.1757,-6.1613,-6.1614,-6.1616,0,-6.096,-6.1011,-6.1061,-6.1096,-6.1121,-6.1176,-6.1211,-6.1221,-6.1257,-6.1308,-6.1347,-6.1404,-6.145,-6.1542,-6.1564,-6.1616,-6.1612,-6.1668,-6.1619,-6.1618,-6.1613,-6.161,-6.1616,-6.1677,-6.1679,-6.168,-6.1681,0,-6.1084,-6.1091,-6.1142,-6.1197,-6.124,-6.1283,-6.1324,-6.1352,-6.1368,-6.1409,-6.1469,-6.1505,-6.1576,-6.1632,-6.1685,-6.1707,-6.1697,-6.1696,-6.1711,-6.1712,-6.1706,-6.1711,-6.1543,-6.1692,-6.1691,-6.169,-6.169,-6.1689,-6.1171,-6.1217,-6.126,-6.1318,-6.135,-6.139,-6.1435,-6.1457,-6.1508,-6.1568,-6.157,-6.1636,-6.1675,-6.1745,-6.177,-6.1821,-6.1803,-6.1825,-6.183,-6.1836,-6.1841,-6.1698,-6.183,-6.183,-6.183,-6.1829,-6.1829,0,-6.1295,-6.1322,-6.1376,-6.1435,-6.1481,-6.147,-6.1515,-6.1554,-6.1612,-6.1651,-6.1697,-6.1766,-6.1822,-6.1849,-6.1904,-6.1939,-6.1936,-6.1953,-6.1951,-6.1956,-6.1853,-6.1835,-6.1955,-6.1955,-6.1955,-6.1955,-6.1955,-6.1955,-6.1365,-6.1442,-6.1455,-6.1549,-6.1576,-6.1642,-6.1669,-6.1705,-6.1736,-6.1815,-6.1862,-6.188,-6.1914,-6.1972,-6.2022,-6.2028,-6.2049,-6.2069,-6.2073,-6.1976,-6.1963,-6.1951,-6.1934,-6.2073,-6.2073,-6.2172,-6.2173,-6.2174]}]]